Wright-Patt AFB, OH

2:26 PM EDT on May 26, 2017 (GMT -0400)
Wright-Patterson Air Force Base

Weather History for KFFO - June, 2013

Change the Weather History Date:

Thursday, June 20, 2013

  Actual Average Record
Temperature  
Mean Temperature 69 °F -  
Max Temperature 84 °F 79 °F 93 °F (2012)
Min Temperature 54 °F 59 °F 48 °F (2004)
Cooling Degree Days 4    
Growing Degree Days 19 (Base 50)    
Moisture  
Dew Point 53 °F    
Average Humidity 55    
Maximum Humidity 83    
Minimum Humidity 34    
Precipitation  
Precipitation 0.00 in - - ()
Sea Level Pressure  
Sea Level Pressure 30.19 in    
Wind  
Wind Speed 2 mph (ENE)    
Max Wind Speed 6 mph    
Max Gust Speed -    
Visibility 10 miles    
Events      
Averages and records for this station are not official NWS values.
T = Trace of Precipitation, MM = Missing Value Source: NWS Daily Summary

Daily Weather History Graph

Daily Weather History Graph

Search for Another Location

Airport or City:

Trip Planner

Search our weather history database for the weather conditions in past years. The results will help you decide how hot, cold, wet, or windy it might be!

Date:

Astronomy

Jun. 20, 2013 Rise Set
Actual Time 6:07 AM EDT 9:07 PM EDT
Civil Twilight 5:35 AM EDT 9:40 PM EDT
Nautical Twilight 4:53 AM EDT 10:22 PM EDT
Astronomical Twilight 4:05 AM EDT 11:10 PM EDT
Moon 6:09 PM EDT (6/20) 3:33 AM EDT (6/20)
Length of Visible Light 16h 05m
Length of Day
14h 59m
Waxing Gibbous, 89% of the Moon is Illuminated
Jun 20
Waxing Gibbous
Jun 23
Full
Jun 30
Last Quarter
Jul 8
New
Jul 15
First Quarter

Hourly Weather History & Observations

Time (EDT) Temp. Heat Index Dew Point Humidity Pressure Visibility Wind Dir Wind Speed Gust Speed Precip Events Conditions
12:58 AM 61.9 °F - 54.0 °F 75% 30.15 in 10.0 mi Calm Calm - N/A   Clear
1:58 AM 59.7 °F - 51.6 °F 75% 30.15 in 9.0 mi West 2.3 mph - N/A   Clear
2:58 AM 59.9 °F - 49.8 °F 69% 30.16 in 9.0 mi Calm Calm - N/A   Clear
3:58 AM 58.8 °F - 50.4 °F 73% 30.16 in 8.0 mi North 2.3 mph - N/A   Clear
4:58 AM 55.2 °F - 50.0 °F 83% 30.16 in 8.0 mi Calm Calm - N/A   Clear
5:58 AM 54.7 °F - 49.3 °F 82% 30.18 in 10.0 mi Calm Calm - N/A   Partly Cloudy
6:58 AM 57.7 °F - 50.4 °F 76% 30.20 in 10.0 mi Calm Calm - N/A   Scattered Clouds
7:58 AM 61.5 °F - 50.4 °F 67% 30.21 in 10.0 mi Calm Calm - N/A   Mostly Cloudy
8:58 AM 68.5 °F - 52.0 °F 55% 30.22 in 10.0 mi Variable 1.2 mph - N/A   Mostly Cloudy
9:58 AM 73.4 °F - 53.6 °F 50% 30.22 in 10.0 mi Variable 3.5 mph - N/A   Scattered Clouds
10:58 AM 75.6 °F - 55.0 °F 49% 30.22 in 10.0 mi South 3.5 mph - N/A   Scattered Clouds
11:58 AM 77.9 °F - 54.9 °F 45% 30.22 in 10.0 mi Calm Calm - N/A   Scattered Clouds
12:58 PM 80.1 °F 79.9 °F 53.2 °F 39% 30.21 in 10.0 mi Variable 3.5 mph - N/A   Scattered Clouds
1:58 PM 81.3 °F - 52.3 °F 37% 30.20 in 10.0 mi Variable 5.8 mph - N/A   Scattered Clouds
2:58 PM 82.8 °F - 52.5 °F 35% 30.19 in 10.0 mi NNE 3.5 mph - N/A   Scattered Clouds
3:58 PM 83.1 °F 82.1 °F 54.1 °F 37% 30.19 in 10.0 mi NNW 5.8 mph - N/A   Scattered Clouds
4:58 PM 84.4 °F 82.9 °F 54.0 °F 35% 30.18 in 10.0 mi Calm Calm - N/A   Scattered Clouds
5:58 PM 84.4 °F 82.8 °F 53.4 °F 34% 30.18 in 10.0 mi Calm Calm - N/A   Scattered Clouds
6:58 PM 83.7 °F 82.4 °F 54.3 °F 36% 30.17 in 10.0 mi Variable 3.5 mph - N/A   Scattered Clouds
7:58 PM 80.8 °F 80.7 °F 55.9 °F 42% 30.16 in 10.0 mi SE 5.8 mph - N/A   Scattered Clouds
8:58 PM 78.8 °F - 56.1 °F 46% 30.16 in 10.0 mi SE 4.6 mph - N/A   Scattered Clouds
9:58 PM 75.4 °F - 58.3 °F 55% 30.17 in 10.0 mi East 3.5 mph - N/A   Partly Cloudy
10:58 PM 71.8 °F - 57.9 °F 62% 30.20 in 10.0 mi Calm Calm - N/A   Clear
11:58 PM 70.0 °F - 57.9 °F 65% 30.21 in 10.0 mi ENE 1.2 mph - N/A   Clear